Regional Weather Roundup
Issued by NWS Northern Indiana

Home | Current Version | Previous Version | Graphics & Text | Print | Product List | Glossary On
Versions: 1 2 3 4 5 6 7 8 9 10 11 12 13 14 15 16 17 18 19 20 21 22 23 24 25 26 27 28 29 30 31 32 33 34 35 36 37 38 39 40 41 42 43 44 45 46 47 48 49 50
000
ASUS43 KIWX 280110
RWRIWX

KIWX WEATHER ROUNDUP
NATIONAL WEATHER SERVICE NORTHERN INDIANA
900 PM EDT WED MAY 27 2015

NOTE: "FAIR" INDICATES FEW OR NO CLOUDS BELOW 12,000 FEET WITH NO
SIGNIFICANT WEATHER AND/OR OBSTRUCTIONS TO VISIBILITY.

* THESE STATIONS ARE NOT UNDER NWS QUALITY CONTROL. THEY ALSO MAY NOT
  REPORT WEATHER SUCH AS PRECIPITATION OR FOG.

INZ001>027-280200-
NORTHERN INDIANA

CITY           SKY/WX    TMP DP  RH WIND       PRES   REMARKS
GARY*          CLEAR     66  57  72 N6        30.05S
VALPARAISO     CLEAR     67  56  67 N3        30.08R
MICHIGAN CITY* CLEAR     63  54  72 CALM      30.08R
LAPORTE*       CLEAR     66  56  70 NW6       30.08R
KNOX*          CLEAR     64  54  68 N8        30.07R
SOUTH BEND     CLEAR     65  57  75 NW7       30.07R
ELKHART*       CLEAR     66  55  68 NW9       30.07R
GOSHEN         CLEAR     64  58  80 W7        30.05R
MONTICELLO*    CLEAR     71  60  67 N10       30.06R
LOGANSPORT*    PTCLDY    70  55  60 W3        30.06S
ROCHESTER*     PTCLDY    70  59  68 NW3       30.07R
WARSAW*        CLEAR     66  57  72 NW3       30.06R
ANGOLA*        CLOUDY    70  61  73 W6        30.04R
FORT WAYNE     MOCLDY    69  64  84 SW7       30.04S
HUNTINGTON*    PTCLDY    68  63  84 SW6       30.04R
PERU/GRISSOM   PTCLDY    70  63  79 W5        30.05R
MARION*        PTCLDY    73  60  63 W7        30.06R

$$
INZ028>050-280200-
CENTRAL INDIANA

CITY           SKY/WX    TMP DP  RH WIND       PRES   REMARKS
LAFAYETTE      CLEAR     71  57  61 NW6       30.06R
KOKOMO*        PTCLDY    72  64  78 SW7       30.06R
MUNCIE*        MOCLDY    71  64  78 W6        30.06S
INDIANAPOLIS   LGT RAIN  68  64  87 W13       30.07R FOG

$$
MIZ043>046-050>051-056>058-064>065-071>073-077>080-280200-
SOUTHWEST LOWER MICHIGAN

CITY           SKY/WX    TMP DP  RH WIND       PRES   REMARKS
BATTLE CREEK   CLOUDY    68  56  65 NW9       30.05R
BENTON HARBOR  CLEAR     57  55  93 CALM      30.07R
COLDWATER*     CLEAR     65  56  72 W7        30.04R
HILLSDALE*     MOCLDY    69  58  70 W8        30.04S
HOLLAND        CLEAR     60  56  86 SW3       30.08R
GRAND RAPIDS   PTCLDY    64  55  72 W9        30.05R
KALAMAZOO      PTCLDY    66  54  65 NW8       30.06R
STURGIS*       CLEAR     66  57  72 W6        30.05R
THREE RIVERS*  FAIR      66  56  68 NW9       30.06R

$$
OHZ001>008-015>018-024>025-280200-
NORTHWEST OHIO

CITY           SKY/WX    TMP DP  RH WIND       PRES   REMARKS
WAUSEON*       CLOUDY    70  66  88 SW6       30.03R
DEFIANCE       MOCLDY    70  62  76 CALM      30.03R
FINDLAY        CLOUDY    68  64  87 S6        30.04S
TOLEDO EXPRESS MOCLDY    68  65  90 S5        30.03R
TOLEDO METCALF CLOUDY    68  63  84 SW8       30.04R
LIMA           CLOUDY    70  64  81 CALM      30.05F

$$
AND FOR LAKE MICHIGAN COASTAL AND OPEN LAKE BUOY OBSERVATIONS

STATION/POSITION TEMP    WIND        PRES    VSBY  WAVE
                 AIR SEA DIR/SP/G                  HT/PER
                 (F)     (DEG/KT/KT) (MB)    (MI)  (FT/S)
CALUMET HARBOR    65     360/  3/  4   N/A
MICHIGAN CITY     61      10/  5/  6   N/A
BURNS HARBOR      63      60/  6/  7 1018.6S
SAINT JOSEPH      60     210/  1/  3 1019.3R
SOUTH LAKE BUOY   50 38  160/  2/  4 1018.3R         1
4 MI NW BRIDGMAN  56 56  340/  4/  4   N/A           1/ 3
MICHIGAN CITY     57 53   90/  2/  2   N/A           1
MICHIGAN CITY CG     63              1019.9   3 1/2  1

$$
&&


USA.gov is the U.S. government's official web portal to all federal, state and local government web resources and services.